Dawei Airport


Codes: VYDW/TVY
Name: Dawei Airport
City: Dawei
Country: Myanmar [Burma]
Elevation: 84 ft.
Wikipedia:

Photos at Dawei Airport


   Photos courtesy of SpottingLog. You can add your own sightings and photos by signing up for a free trial today.



No photos found.

Weather at Dawei Airport


Time (UTC)DescriptionTempratureWindCloud coverageVisibilityPressureHumidity
21-Jun-2024 12:00Moderate Rain27°C4 mph, W99%8593m1005hPa86%
21-Jun-2024 15:00Moderate Rain26°C2 mph, SW100%10000m1007hPa89%
21-Jun-2024 18:00Light Rain25°C4 mph, SW96%10000m1006hPa90%
21-Jun-2024 21:00Light Rain25°C4 mph, SW86%10000m1005hPa91%
22-Jun-2024 00:00Light Rain26°C4 mph, SW93%10000m1006hPa89%
22-Jun-2024 03:00Light Rain28°C7 mph, SW100%7810m1007hPa83%
22-Jun-2024 06:00Moderate Rain27°C7 mph, SW100%4041m1005hPa88%
22-Jun-2024 09:00Moderate Rain27°C7 mph, SW99%7531m1004hPa89%
22-Jun-2024 12:00Moderate Rain26°C7 mph, SW100%6001m1005hPa91%
22-Jun-2024 15:00Moderate Rain26°C9 mph, SW100%5632m1007hPa89%
22-Jun-2024 18:00Moderate Rain26°C9 mph, SW100%4311m1006hPa90%
22-Jun-2024 21:00Moderate Rain26°C7 mph, SW100%5665m1005hPa92%
23-Jun-2024 00:00Moderate Rain26°C7 mph, SW100%6218m1006hPa90%
23-Jun-2024 03:00Moderate Rain26°C7 mph, SW99%4499m1007hPa90%
23-Jun-2024 06:00Moderate Rain26°C7 mph, SW100%7129m1006hPa91%
23-Jun-2024 09:00Moderate Rain25°C4 mph, SW100%6450m1004hPa94%
23-Jun-2024 12:00Moderate Rain25°C4 mph, SW100%4822m1005hPa94%
23-Jun-2024 15:00Moderate Rain25°C7 mph, SW100%3170m1007hPa93%
23-Jun-2024 18:00Moderate Rain26°C9 mph, SW100%2834m1005hPa93%
23-Jun-2024 21:00Moderate Rain25°C7 mph, SW100%3292m1004hPa93%
24-Jun-2024 00:00Moderate Rain25°C4 mph, SW100%2171m1005hPa95%
24-Jun-2024 03:00Moderate Rain25°C7 mph, W100%1595m1005hPa97%
24-Jun-2024 06:00Heavy Intensity Rain25°C13 mph, SW100%1038m1004hPa97%
24-Jun-2024 09:00Heavy Intensity Rain25°C11 mph, SW100%1428m1001hPa96%
24-Jun-2024 12:00Heavy Intensity Rain25°C7 mph, W100%2063m1003hPa97%
24-Jun-2024 15:00Moderate Rain25°C4 mph, SW100%1700m1004hPa97%
24-Jun-2024 18:00Heavy Intensity Rain25°C13 mph, SW100%830m1003hPa98%
24-Jun-2024 21:00Heavy Intensity Rain24°C2 mph, SE100%4167m1000hPa97%
25-Jun-2024 00:00Heavy Intensity Rain25°C2 mph, E100%4688m1001hPa98%
25-Jun-2024 03:00Very Heavy Rain25°C11 mph, SW100%1030m1002hPa97%
25-Jun-2024 06:00Heavy Intensity Rain25°C18 mph, SW100%625m1000hPa98%
25-Jun-2024 09:00Heavy Intensity Rain26°C22 mph, SW100%7809m1001hPa93%
25-Jun-2024 12:00Moderate Rain25°C20 mph, SW100%4864m1002hPa94%
25-Jun-2024 15:00Moderate Rain25°C16 mph, SW100%2277m1005hPa94%
25-Jun-2024 18:00Moderate Rain25°C13 mph, SW100%1666m1003hPa96%
25-Jun-2024 21:00Heavy Intensity Rain25°C18 mph, SW100%2426m1002hPa95%
26-Jun-2024 00:00Moderate Rain25°C18 mph, SW100%3753m1003hPa94%
26-Jun-2024 03:00Moderate Rain26°C20 mph, SW100%8098m1005hPa92%
26-Jun-2024 06:00Moderate Rain25°C20 mph, SW100%2292m1004hPa93%
26-Jun-2024 09:00Moderate Rain26°C18 mph, SW100%6080m1003hPa91%